Tracking 19827 objects as of 21-Aug-2019
HD Live streaming from Space Station
objects crossing your sky now

PINA 2A

Track PINA 2A now!
10-day predictions


NORAD ID: 41843
Int'l Code: 2016-066C
Perigee: 492.3 km
Apogee: 513.4 km
Inclination: 97.4 °
Period: 94.5 minutes
Semi major axis: 6873 km
RCS: Unknown
Launch date: November 9, 2016
Source: People's Republic of China (PRC)
Launch site: Jiuquan Satellite Launch Center, China (JSC)
aabbcc
Your satellite tracking list
Your tracking list is empty




NASA's NSSDC Master Catalog

Two Line Element Set (TLE):
1 41843U 16066C   19233.20992145  .00000437  00000-0  21329-4 0  9994
2 41843  97.4061 239.2400 0015396 325.1185 165.3044 15.23363104154324
Source of the keplerian elements: AFSPC